N9NDF Weather Reports


Display with metric or nautical units.
time (UTC)temp
F
wind
direction
speed
MPH
gust
MPH
rain 1hr
in
rain 24hr
in
rain mn
in
humidity
%
barometer
mb
20260504090125 50 0 0.0 1.0 0.00 0.00 0.00 89 984.3
20260504081939 51 0 0.0 2.0 0.00 0.00 0.00 89 984.4
20260504081840 51 0 0.0 2.0 0.00 0.00 0.00 89 984.4
20260504081740 51 211 0.0 2.0 0.00 0.00 0.00 89 984.5
20260504081639 51 0 0.0 2.0 0.00 0.00 0.00 89 984.5
20260504081607 51 0 0.0 2.0 0.00 0.00 0.00 89 984.5
20260504081540 51 0 0.0 2.0 0.00 0.00 0.00 89 984.5
20260504081439 51 0 0.0 2.0 0.00 0.00 0.00 89 984.4
20260504081339 51 0 0.0 1.0 0.00 0.00 0.00 88 984.4
20260504081240 51 0 0.0 1.0 0.00 0.00 0.00 88 984.4
20260504081139 51 0 0.0 2.0 0.00 0.00 0.00 88 984.3
20260504081106 51 0 0.0 2.0 0.00 0.00 0.00 88 984.3
20260504081040 51 0 0.0 2.0 0.00 0.00 0.00 88 984.3
20260504080940 51 0 0.0 2.0 0.00 0.00 0.00 88 984.3
20260504080840 51 0 0.0 2.0 0.00 0.00 0.00 88 984.3
20260504080753 51 0 0.0 2.0 0.00 0.00 0.00 88 984.3
20260504080639 51 0 0.0 2.0 0.00 0.00 0.00 88 984.3
20260504080606 51 0 0.0 2.0 0.00 0.00 0.00 88 984.3
20260504080543 51 0 0.0 2.0 0.00 0.00 0.00 88 984.4
20260504080439 51 0 0.0 2.0 0.00 0.00 0.00 88 984.4
20260504080348 51 0 0.0 2.0 0.00 0.00 0.00 88 984.4
20260504080240 51 0 0.0 2.0 0.00 0.00 0.00 88 984.4
20260504080139 51 0 0.0 1.0 0.00 0.00 0.00 88 984.4
20260504080107 51 0 0.0 1.0 0.00 0.00 0.00 88 984.4
20260504070334 52 0 0.0 2.0 0.00 0.00 0.00 85 985.0
20260504070232 52 356 0.0 2.0 0.00 0.00 0.00 85 985.0
20260504070132 52 0 0.0 2.0 0.00 0.00 0.00 85 985.0
20260504070105 52 357 0.0 2.0 0.00 0.00 0.00 85 985.0
20260504060226 53 0 0.0 0.0 0.00 0.00 0.00 84 985.2
20260504060119 53 0 0.0 0.0 0.00 0.00 0.00 84 985.3
20260504050724 55 0 0.0 1.0 0.00 0.00 0.00 82 985.8
20260504050609 55 0 0.0 1.0 0.00 0.00 0.00 82 985.9
20260504050524 55 0 0.0 1.0 0.00 0.00 0.00 82 985.9
20260504050424 55 0 0.0 1.0 0.00 0.00 0.00 82 985.9
20260504050324 55 0 0.0 1.0 0.00 0.00 0.00 82 985.9
20260504050224 55 185 0.0 1.0 0.00 0.00 0.00 82 985.9
20260504050107 55 0 0.0 0.0 0.00 0.00 0.00 82 985.9
20260504050025 55 0 0.0 0.0 0.00 0.00 0.00 82 985.9
20260504045924 55 0 0.0 0.0 0.00 0.00 0.00 82 985.9
20260504045823 55 0 0.0 0.0 0.00 0.00 0.00 82 985.9
20260504045724 55 0 0.0 2.0 0.00 0.00 0.00 82 985.9
20260504045637 55 0 0.0 2.0 0.00 0.00 0.00 82 985.9
20260504045604 55 0 0.0 2.0 0.00 0.00 0.00 82 985.9
20260504045524 55 0 0.0 2.0 0.00 0.00 0.00 81 985.9
20260504045425 55 0 0.0 2.0 0.00 0.00 0.00 81 985.9
20260504045324 55 0 0.0 2.0 0.00 0.00 0.00 81 985.9
20260504045224 55 0 0.0 2.0 0.00 0.00 0.00 81 985.9
20260504045102 55 0 0.0 2.0 0.00 0.00 0.00 81 985.9
20260504045024 55 0 0.0 2.0 0.00 0.00 0.00 81 985.9
20260504044924 55 0 0.0 2.0 0.00 0.00 0.00 81 985.9
20260504044832 55 0 0.0 1.0 0.00 0.00 0.00 81 985.9
20260504044824 55 0 0.0 2.0 0.00 0.00 0.00 81 985.9
20260504044732 55 351 0.0 2.0 0.00 0.00 0.00 81 985.9
20260504044718 55 0 0.0 1.0 0.00 0.00 0.00 81 985.9
20260504044520 55 0 0.0 1.0 0.00 0.00 0.00 81 985.9
20260504044421 55 0 0.0 1.0 0.00 0.00 0.00 81 985.9
20260504044321 55 0 0.0 1.0 0.00 0.00 0.00 81 985.9
20260504044220 55 0 0.0 1.0 0.00 0.00 0.00 81 985.9
20260504044103 55 0 0.0 1.0 0.00 0.00 0.00 81 985.9
20260504044021 55 161 0.0 1.0 0.00 0.00 0.00 80 985.9
20260504043921 55 0 0.0 1.0 0.00 0.00 0.00 80 985.9
20260504043823 55 0 0.0 0.0 0.00 0.00 0.00 79 986.0
20260504043818 55 352 0.0 1.0 0.00 0.00 0.00 80 985.9
20260504043731 55 0 0.0 1.0 0.00 0.00 0.00 80 985.9
20260504043706 55 0 0.0 0.0 0.00 0.00 0.00 80 985.9
20260504043518 55 0 0.0 0.0 0.00 0.00 0.00 80 985.9
20260504043445 55 0 0.0 0.0 0.00 0.00 0.00 79 986.0
20260504043317 55 0 0.0 0.0 0.00 0.00 0.00 79 986.0
20260504043229 55 0 0.0 0.0 0.00 0.00 0.00 79 986.0
20260504043218 55 0 0.0 0.0 0.00 0.00 0.00 79 986.0
20260504043017 55 0 0.0 0.0 0.00 0.00 0.00 79 986.0
20260504042913 56 0 0.0 0.0 0.00 0.00 0.00 79 986.0
20260504042813 56 0 0.0 0.0 0.00 0.00 0.00 79 986.0
20260504042710 56 0 0.0 0.0 0.00 0.00 0.00 79 986.0
20260504042626 56 0 0.0 0.0 0.00 0.00 0.00 78 986.0
20260504042614 56 0 0.0 0.0 0.00 0.00 0.00 78 986.0
20260504042544 56 0 0.0 0.0 0.00 0.00 0.00 78 986.0
20260504042508 56 0 0.0 0.0 0.00 0.00 0.00 78 986.0
20260504042437 56 0 0.0 0.0 0.00 0.00 0.00 78 986.0
20260504042307 56 0 0.0 0.0 0.00 0.00 0.00 78 986.0
20260504042226 56 0 0.0 0.0 0.00 0.00 0.00 78 986.0
20260504042211 56 0 0.0 0.0 0.00 0.00 0.00 78 986.0
20260504042008 56 0 0.0 0.0 0.00 0.00 0.00 78 986.0
20260504041908 56 0 0.0 0.0 0.00 0.00 0.00 77 986.0
20260504041808 56 0 0.0 0.0 0.00 0.00 0.00 77 986.0
20260504041708 56 0 0.0 0.0 0.00 0.00 0.00 77 986.0
20260504041621 56 0 0.0 0.0 0.00 0.00 0.00 76 986.0
20260504041614 56 0 0.0 0.0 0.00 0.00 0.00 77 986.0
20260504041605 56 0 0.0 0.0 0.00 0.00 0.00 77 986.0
20260504041507 56 0 0.0 0.0 0.00 0.00 0.00 77 986.0
20260504041447 56 0 0.0 0.0 0.00 0.00 0.00 77 986.0
20260504041307 56 0 0.0 0.0 0.00 0.00 0.00 77 986.0
20260504041241 56 0 0.0 0.0 0.00 0.00 0.00 77 986.0
20260504041224 56 0 0.0 0.0 0.00 0.00 0.00 76 986.0
20260504041008 56 0 0.0 0.0 0.00 0.00 0.00 76 986.0
20260504040909 56 0 0.0 0.0 0.00 0.00 0.00 76 986.0
20260504040808 56 0 0.0 0.0 0.00 0.00 0.00 76 986.0
20260504040708 56 0 0.0 0.0 0.00 0.00 0.00 75 986.0
20260504040613 56 0 0.0 0.0 0.00 0.00 0.00 75 986.0
20260504040604 56 0 0.0 0.0 0.00 0.00 0.00 75 986.0
20260504040508 57 0 0.0 0.0 0.00 0.00 0.00 75 986.0
20260504040408 57 0 0.0 0.0 0.00 0.00 0.00 75 986.0
20260504040307 57 0 0.0 0.0 0.00 0.00 0.00 75 986.1
20260504040208 57 0 0.0 0.0 0.00 0.00 0.00 75 986.1
20260504040113 57 0 0.0 0.0 0.00 0.00 0.00 74 986.1
20260504040104 57 0 0.0 0.0 0.00 0.00 0.00 74 986.1
20260504040008 57 0 0.0 0.0 0.00 0.00 0.00 74 986.1
20260504035908 57 0 0.0 0.0 0.00 0.00 0.00 74 986.1
20260504035808 57 0 0.0 0.0 0.00 0.00 0.00 74 986.1
20260504035708 57 0 0.0 1.0 0.00 0.00 0.00 74 986.1
20260504035614 57 0 0.0 1.0 0.00 0.00 0.00 74 986.1
20260504035604 57 0 0.0 1.0 0.00 0.00 0.00 74 986.1
20260504035508 57 0 0.0 1.0 0.00 0.00 0.00 74 986.1
20260504035408 57 0 0.0 2.0 0.00 0.00 0.00 74 986.1
20260504035320 57 0 0.0 2.0 0.00 0.00 0.00 74 986.1
20260504035309 57 0 0.0 2.0 0.00 0.00 0.00 74 986.1
20260504035226 57 0 0.0 2.0 0.00 0.00 0.00 74 986.1
20260504035211 57 0 0.0 2.0 0.00 0.00 0.00 74 986.1
20260504035009 57 0 0.0 2.0 0.00 0.00 0.00 74 986.1
20260504034909 57 0 0.0 2.0 0.00 0.00 0.00 74 986.1
20260504034809 57 0 0.0 2.0 0.00 0.00 0.00 74 986.1
20260504034709 57 0 0.0 2.0 0.00 0.00 0.00 74 986.1
20260504034614 57 0 0.0 2.0 0.00 0.00 0.00 74 986.1
20260504034605 57 0 0.0 2.0 0.00 0.00 0.00 74 986.1
20260504034508 57 0 0.0 2.0 0.00 0.00 0.00 74 986.1
20260504034406 57 271 0.0 1.0 0.00 0.00 0.00 74 986.1
20260504034305 57 0 0.0 1.0 0.00 0.00 0.00 73 986.1
20260504034205 57 0 0.0 1.0 0.00 0.00 0.00 73 986.1
20260504034110 57 0 0.0 1.0 0.00 0.00 0.00 73 986.2
20260504034102 57 0 0.0 1.0 0.00 0.00 0.00 73 986.2
20260504034005 57 0 0.0 1.0 0.00 0.00 0.00 73 986.2
20260504033906 57 0 0.0 1.0 0.00 0.00 0.00 73 986.2
20260504033806 57 0 0.0 1.0 0.00 0.00 0.00 73 986.2
20260504033706 58 0 0.0 1.0 0.00 0.00 0.00 73 986.2
20260504033610 58 0 0.0 1.0 0.00 0.00 0.00 73 986.2
20260504033602 58 0 0.0 1.0 0.00 0.00 0.00 73 986.2
20260504033506 58 0 0.0 1.0 0.00 0.00 0.00 73 986.2
20260504033405 58 0 0.0 1.0 0.00 0.00 0.00 73 986.2
20260504033305 58 0 0.0 1.0 0.00 0.00 0.00 73 986.2
20260504033206 58 0 0.0 1.0 0.00 0.00 0.00 73 986.2
20260504033107 58 0 0.0 1.0 0.00 0.00 0.00 73 986.3
20260504033100 58 0 0.0 1.0 0.00 0.00 0.00 73 986.3
20260504033005 58 0 0.0 1.0 0.00 0.00 0.00 73 986.3
20260504032906 58 0 0.0 1.0 0.00 0.00 0.00 73 986.3
20260504032806 58 0 0.0 1.0 0.00 0.00 0.00 73 986.3
20260504032706 58 0 0.0 0.0 0.00 0.00 0.00 73 986.3
20260504032602 58 0 0.0 1.0 0.00 0.00 0.00 73 986.3
20260504032537 58 0 0.0 2.0 0.00 0.00 0.00 72 986.2
20260504032504 58 0 0.0 1.0 0.00 0.00 0.00 73 986.3
20260504032428 58 0 0.0 1.0 0.00 0.00 0.00 72 986.3
20260504032304 58 0 0.0 1.0 0.00 0.00 0.00 73 986.3
20260504032216 58 0 0.0 2.0 0.00 0.00 0.00 72 986.3
20260504032151 58 0 0.0 2.0 0.00 0.00 0.00 72 986.3
20260504032004 58 0 0.0 2.0 0.00 0.00 0.00 72 986.2
20260504031931 58 0 0.0 2.0 0.00 0.00 0.00 72 986.2
20260504031804 58 0 0.0 2.0 0.00 0.00 0.00 72 986.2
20260504031724 58 0 0.0 2.0 0.00 0.00 0.00 72 986.2
20260504031710 58 0 0.0 2.0 0.00 0.00 0.00 72 986.2
20260504031505 58 0 0.0 2.0 0.00 0.00 0.00 72 986.2
20260504031405 58 0 0.0 2.0 0.00 0.00 0.00 72 986.2
20260504031305 58 0 0.0 2.0 0.00 0.00 0.00 72 986.2
20260504031204 58 149 0.0 1.0 0.00 0.00 0.00 72 986.2
20260504031057 58 0 0.0 1.0 0.00 0.00 0.00 72 986.2
20260504031005 58 0 0.0 1.0 0.00 0.00 0.00 72 986.3
20260504030904 58 0 0.0 1.0 0.00 0.00 0.00 71 986.3
20260504030804 58 0 0.0 0.0 0.00 0.00 0.00 71 986.3
20260504030716 58 0 0.0 0.0 0.00 0.00 0.00 71 986.3
20260504030558 58 0 0.0 0.0 0.00 0.00 0.00 71 986.3
20260504030505 58 0 0.0 0.0 0.00 0.00 0.00 71 986.3
20260504030404 58 0 0.0 0.0 0.00 0.00 0.00 71 986.3
20260504030305 58 0 0.0 0.0 0.00 0.00 0.00 71 986.3
20260504030204 59 0 0.0 0.0 0.00 0.00 0.00 71 986.3
20260504030101 59 0 0.0 1.0 0.00 0.00 0.00 71 986.3
20260504030007 59 0 0.0 1.0 0.00 0.00 0.00 71 986.3
20260504025904 59 0 0.0 1.0 0.00 0.00 0.00 71 986.3
20260504025805 59 0 0.0 1.0 0.00 0.00 0.00 70 986.3
20260504025705 59 0 0.0 1.0 0.00 0.00 0.00 70 986.3
20260504025559 59 0 0.0 1.0 0.00 0.00 0.00 70 986.3
20260504025515 59 0 0.0 1.0 0.00 0.00 0.00 70 986.3
20260504025404 59 0 0.0 1.0 0.00 0.00 0.00 70 986.3
20260504025305 59 0 0.0 1.0 0.00 0.00 0.00 70 986.3
20260504025057 59 0 0.0 1.0 0.00 0.00 0.00 70 986.2
20260504025005 59 280 0.0 1.0 0.00 0.00 0.00 70 986.2
20260504024905 59 0 0.0 1.0 0.00 0.00 0.00 70 986.2
20260504024815 59 0 0.0 1.0 0.00 0.00 0.00 69 986.3
20260504024804 59 0 0.0 1.0 0.00 0.00 0.00 70 986.3
20260504024725 59 0 0.0 1.0 0.00 0.00 0.00 70 986.3
20260504024711 59 0 0.0 1.0 0.00 0.00 0.00 69 986.3
20260504024505 59 0 0.0 1.0 0.00 0.00 0.00 70 986.3
20260504024405 59 0 0.0 1.0 0.00 0.00 0.00 70 986.3
20260504024305 59 0 0.0 1.0 0.00 0.00 0.00 70 986.3
20260504024205 59 0 0.0 1.0 0.00 0.00 0.00 70 986.3
20260504024112 59 0 0.0 1.0 0.00 0.00 0.00 70 986.3
20260504024058 59 0 0.0 1.0 0.00 0.00 0.00 69 986.3
20260504024004 59 0 0.0 1.0 0.00 0.00 0.00 69 986.3
20260504023904 59 0 0.0 0.0 0.00 0.00 0.00 69 986.3
20260504023804 59 0 0.0 0.0 0.00 0.00 0.00 70 986.3
20260504023705 59 0 0.0 0.0 0.00 0.00 0.00 69 986.3
20260504023559 59 0 0.0 0.0 0.00 0.00 0.00 69 986.3
20260504023505 59 0 0.0 0.0 0.00 0.00 0.00 69 986.3
20260504023404 60 0 0.0 0.0 0.00 0.00 0.00 69 986.3
20260504023304 60 0 0.0 0.0 0.00 0.00 0.00 69 986.3
20260504023205 60 0 0.0 0.0 0.00 0.00 0.00 69 986.3
20260504023057 60 0 0.0 0.0 0.00 0.00 0.00 69 986.3
20260504023004 60 0 0.0 0.0 0.00 0.00 0.00 69 986.3
20260504022904 60 0 0.0 0.0 0.00 0.00 0.00 69 986.3
20260504022830 60 0 0.0 1.0 0.00 0.00 0.00 68 986.3
20260504022805 60 0 0.0 0.0 0.00 0.00 0.00 69 986.3
20260504022724 60 0 0.0 0.0 0.00 0.00 0.00 68 986.3
20260504022711 60 0 0.0 1.0 0.00 0.00 0.00 68 986.3
20260504022505 60 0 0.0 1.0 0.00 0.00 0.00 68 986.3
20260504022402 60 0 0.0 1.0 0.00 0.00 0.00 68 986.3
20260504022301 60 224 0.0 1.0 0.00 0.00 0.00 68 986.3
20260504022202 60 0 0.0 1.0 0.00 0.00 0.00 68 986.3
20260504022106 60 0 0.0 1.0 0.00 0.00 0.00 68 986.3
20260504022056 60 0 0.0 1.0 0.00 0.00 0.00 67 986.3
20260504022012 60 0 0.0 1.0 0.00 0.00 0.00 67 986.3
20260504021902 60 0 0.0 1.0 0.00 0.00 0.00 67 986.2
20260504021801 60 0 0.0 1.0 0.00 0.00 0.00 67 986.2
20260504021702 60 0 0.0 1.0 0.00 0.00 0.00 67 986.2
20260504021607 60 0 0.0 1.0 0.00 0.00 0.00 67 986.2
20260504021557 61 0 0.0 1.0 0.00 0.00 0.00 67 986.2
20260504021502 61 0 0.0 1.0 0.00 0.00 0.00 67 986.2
20260504021402 61 240 0.0 1.0 0.00 0.00 0.00 67 986.2
20260504021302 61 0 0.0 1.0 0.00 0.00 0.00 67 986.1
20260504021202 61 223 0.0 1.0 0.00 0.00 0.00 67 986.1
20260504021101 61 0 0.0 0.0 0.00 0.00 0.00 66 986.1
20260504021002 61 0 0.0 0.0 0.00 0.00 0.00 66 986.1
20260504020902 61 0 0.0 0.0 0.00 0.00 0.00 66 986.1
20260504020802 61 0 0.0 0.0 0.00 0.00 0.00 66 986.1
20260504020702 61 0 0.0 0.0 0.00 0.00 0.00 66 986.1
20260504020608 61 0 0.0 0.0 0.00 0.00 0.00 66 986.1
20260504020557 61 0 0.0 0.0 0.00 0.00 0.00 65 986.1
20260504020503 61 0 0.0 0.0 0.00 0.00 0.00 65 986.1
20260504020402 61 0 0.0 0.0 0.00 0.00 0.00 65 986.1
20260504020302 62 0 0.0 0.0 0.00 0.00 0.00 65 986.1
20260504020202 62 0 0.0 0.0 0.00 0.00 0.00 65 986.1
20260504020117 62 0 0.0 0.0 0.00 0.00 0.00 65 986.1
20260504020107 62 0 0.0 0.0 0.00 0.00 0.00 65 986.2
20260504020003 62 0 0.0 0.0 0.00 0.00 0.00 65 986.2
20260504015902 62 0 0.0 1.0 0.00 0.00 0.00 65 986.2
20260504015803 62 0 0.0 1.0 0.00 0.00 0.00 65 986.2
20260504015702 62 0 0.0 1.0 0.00 0.00 0.00 65 986.2
20260504015557 62 0 0.0 1.0 0.00 0.00 0.00 64 986.2
20260504015502 62 0 0.0 1.0 0.00 0.00 0.00 64 986.2
20260504015412 62 0 0.0 1.0 0.00 0.00 0.00 64 986.2
20260504015302 62 0 0.0 1.0 0.00 0.00 0.00 64 986.2
20260504015203 63 0 0.0 1.0 0.00 0.00 0.00 63 986.2
20260504015055 63 0 0.0 1.0 0.00 0.00 0.00 63 986.2
20260504015002 63 0 0.0 1.0 0.00 0.00 0.00 63 986.2
20260504014902 63 0 0.0 1.0 0.00 0.00 0.00 62 986.2
20260504014803 63 0 0.0 1.0 0.00 0.00 0.00 62 986.2
20260504014702 63 0 0.0 0.0 0.00 0.00 0.00 62 986.2
20260504014607 63 0 0.0 0.0 0.00 0.00 0.00 62 986.2
20260504014556 63 0 0.0 1.0 0.00 0.00 0.00 62 986.1
20260504014457 63 0 0.0 1.0 0.00 0.00 0.00 62 986.1
20260504014401 63 0 0.0 1.0 0.00 0.00 0.00 62 986.1
20260504014300 63 0 0.0 1.0 0.00 0.00 0.00 62 986.1
20260504014201 64 0 0.0 2.0 0.00 0.00 0.00 62 986.1
20260504014055 64 0 0.0 2.0 0.00 0.00 0.00 62 986.1
20260504014001 64 0 0.0 2.0 0.00 0.00 0.00 61 986.1
20260504013900 64 0 0.0 2.0 0.00 0.00 0.00 61 986.1
20260504013801 64 0 0.0 2.0 0.00 0.00 0.00 60 986.1
20260504013701 64 0 0.0 2.0 0.00 0.00 0.00 60 986.1
20260504013557 64 0 0.0 2.0 0.00 0.00 0.00 60 986.1
20260504013500 64 0 0.0 2.0 0.00 0.00 0.00 60 986.1
20260504013400 64 0 0.0 2.0 0.00 0.00 0.00 60 986.1
20260504013301 64 239 0.0 2.0 0.00 0.00 0.00 60 986.1
20260504013201 64 0 0.0 2.0 0.00 0.00 0.00 60 986.1
20260504013055 64 0 0.0 2.0 0.00 0.00 0.00 60 986.1
20260504013000 64 258 0.0 1.0 0.00 0.00 0.00 60 986.0
20260504012901 64 0 0.0 1.0 0.00 0.00 0.00 60 986.0
20260504012801 64 0 0.0 1.0 0.00 0.00 0.00 60 986.0
20260504012701 64 251 0.0 2.0 0.00 0.00 0.00 60 986.0
20260504012559 64 0 0.0 2.0 0.00 0.00 0.00 60 986.0
20260504012501 65 0 0.0 2.0 0.00 0.00 0.00 60 986.0
20260504012401 65 0 0.0 2.0 0.00 0.00 0.00 59 986.0
20260504012313 65 0 0.0 2.0 0.00 0.00 0.00 59 986.0
20260504012301 65 0 0.0 2.0 0.00 0.00 0.00 59 986.0
20260504012217 65 0 0.0 2.0 0.00 0.00 0.00 59 986.0
20260504012203 65 0 0.0 2.0 0.00 0.00 0.00 59 986.0
20260504012000 65 0 0.0 2.0 0.00 0.00 0.00 58 985.9
20260504011900 65 0 0.0 2.0 0.00 0.00 0.00 58 985.9
20260504011759 65 0 0.0 2.0 0.00 0.00 0.00 58 985.9
20260504011701 65 212 0.0 2.0 0.00 0.00 0.00 58 985.9
20260504011604 65 229 0.0 2.0 0.00 0.00 0.00 58 985.9
20260504011554 65 213 0.0 2.0 0.00 0.00 0.00 58 985.9
20260504011459 65 0 0.0 2.0 0.00 0.00 0.00 58 985.9
20260504011359 65 0 0.0 2.0 0.00 0.00 0.00 58 985.9
20260504011300 65 0 0.0 2.0 0.00 0.00 0.00 57 985.9
20260504011200 65 0 0.0 2.0 0.00 0.00 0.00 57 985.9
20260504011052 66 0 0.0 2.0 0.00 0.00 0.00 57 985.9
20260504011001 66 0 0.0 2.0 0.00 0.00 0.00 57 985.9
20260504010900 66 228 0.0 2.0 0.00 0.00 0.00 57 985.8
20260504010817 66 0 0.0 2.0 0.00 0.00 0.00 56 985.9
20260504010800 66 0 0.0 2.0 0.00 0.00 0.00 57 985.8
20260504010732 66 0 0.0 2.0 0.00 0.00 0.00 57 985.9
20260504010704 66 257 0.0 2.0 0.00 0.00 0.00 56 985.9
20260504010501 66 216 0.0 2.0 0.00 0.00 0.00 56 985.9
20260504010401 66 256 0.0 1.0 0.00 0.00 0.00 56 985.9
20260504010300 66 0 0.0 2.0 0.00 0.00 0.00 56 985.9
20260504010201 66 218 0.0 2.0 0.00 0.00 0.00 56 985.9
20260504010100 66 0 0.0 2.0 0.00 0.00 0.00 56 985.9
20260504010001 66 0 0.0 2.0 0.00 0.00 0.00 56 985.9
20260504005900 67 0 0.0 2.0 0.00 0.00 0.00 55 985.8
20260504005800 67 0 0.0 2.0 0.00 0.00 0.00 55 985.8
20260504005700 67 0 0.0 2.0 0.00 0.00 0.00 55 985.8
20260504005604 67 0 0.0 2.0 0.00 0.00 0.00 55 985.8
20260504005552 67 277 0.0 2.0 0.00 0.00 0.00 55 985.8
20260504005500 67 0 0.0 2.0 0.00 0.00 0.00 55 985.8
20260504005401 67 0 0.0 2.0 0.00 0.00 0.00 55 985.8
20260504005325 67 0 0.0 2.0 0.00 0.00 0.00 55 985.8
20260504005301 67 0 0.0 2.0 0.00 0.00 0.00 55 985.8
20260504005219 67 265 0.0 2.0 0.00 0.00 0.00 55 985.8
20260504005203 67 0 0.0 2.0 0.00 0.00 0.00 55 985.8
20260504005000 67 0 0.0 2.0 0.00 0.00 0.00 55 985.8
20260504004900 67 265 0.0 2.0 0.00 0.00 0.00 54 985.8
20260504004756 67 251 0.0 2.0 0.00 0.00 0.00 54 985.8
20260504004655 67 0 0.0 2.0 0.00 0.00 0.00 54 985.8
20260504004557 67 0 0.0 2.0 0.00 0.00 0.00 54 985.8
20260504004456 67 0 0.0 2.0 0.00 0.00 0.00 54 985.8
20260504004356 67 0 0.0 4.0 0.00 0.00 0.00 54 985.8
20260504004331 68 242 1.0 4.0 0.00 0.00 0.00 53 985.8
20260504004253 68 214 0.0 4.0 0.00 0.00 0.00 54 985.8
20260504004214 68 0 1.0 4.0 0.00 0.00 0.00 54 985.8
20260504004051 68 274 1.0 4.0 0.00 0.00 0.00 53 985.8
20260504003950 68 261 1.0 4.0 0.00 0.00 0.00 53 985.8
20260504003851 68 0 1.0 4.0 0.00 0.00 0.00 53 985.8
20260504003748 68 279 1.0 4.0 0.00 0.00 0.00 53 985.8
20260504003648 68 0 1.0 4.0 0.00 0.00 0.00 53 985.8
20260504003557 68 228 1.0 4.0 0.00 0.00 0.00 53 985.8
20260504003546 68 226 1.0 4.0 0.00 0.00 0.00 53 985.8
20260504003446 68 220 1.0 4.0 0.00 0.00 0.00 53 985.8
20260504003344 68 222 1.0 4.0 0.00 0.00 0.00 53 985.8
20260504003245 68 272 1.0 4.0 0.00 0.00 0.00 52 985.8
20260504003145 68 245 1.0 4.0 0.00 0.00 0.00 52 985.8
20260504003051 68 0 1.0 4.0 0.00 0.00 0.00 52 985.8
20260504003042 68 242 1.0 4.0 0.00 0.00 0.00 52 985.8
20260504002943 68 0 1.0 4.0 0.00 0.00 0.00 52 985.8
20260504002852 68 231 1.0 4.0 0.00 0.00 0.00 52 985.8
20260504002812 68 231 0.0 2.0 0.00 0.00 0.00 52 985.9
20260504002741 68 218 1.0 4.0 0.00 0.00 0.00 52 985.8
20260504002706 68 216 1.0 4.0 0.00 0.00 0.00 53 985.8
20260504002540 68 0 0.0 2.0 0.00 0.00 0.00 52 985.9
20260504002440 68 0 1.0 2.0 0.00 0.00 0.00 52 985.8
20260504002340 68 0 0.0 2.0 0.00 0.00 0.00 52 985.9
20260504002308 69 275 1.0 2.0 0.00 0.00 0.00 52 985.9
20260504002239 68 0 0.0 2.0 0.00 0.00 0.00 52 985.8
20260504002200 69 0 1.0 2.0 0.00 0.00 0.00 52 985.8
20260504002038 69 0 1.0 2.0 0.00 0.00 0.00 52 985.9
20260504001938 69 208 1.0 2.0 0.00 0.00 0.00 52 985.9
20260504001839 69 122 0.0 2.0 0.00 0.00 0.00 52 985.9
20260504001738 69 0 0.0 2.0 0.00 0.00 0.00 52 985.9
20260504001638 69 0 1.0 3.0 0.00 0.00 0.00 52 985.9
20260504001545 69 229 1.0 3.0 0.00 0.00 0.00 52 985.9
20260504001539 69 233 1.0 3.0 0.00 0.00 0.00 52 985.9
20260504001439 69 0 1.0 3.0 0.00 0.00 0.00 52 985.9
20260504001338 69 276 1.0 3.0 0.00 0.00 0.00 52 985.9
20260504001238 69 0 1.0 3.0 0.00 0.00 0.00 52 985.9
20260504001139 69 211 1.0 3.0 0.00 0.00 0.00 52 985.9
20260504001045 69 256 1.0 3.0 0.00 0.00 0.00 52 985.9
20260504001039 69 0 1.0 3.0 0.00 0.00 0.00 52 985.9
20260504000939 69 0 1.0 3.0 0.00 0.00 0.00 52 985.8
20260504000838 69 0 1.0 3.0 0.00 0.00 0.00 51 985.9
20260504000739 69 223 1.0 3.0 0.00 0.00 0.00 51 985.8
20260504000639 69 232 1.0 3.0 0.00 0.00 0.00 51 985.9
20260504000545 69 219 0.0 3.0 0.00 0.00 0.00 51 985.9
20260504000539 69 260 0.0 3.0 0.00 0.00 0.00 51 985.9
20260504000439 69 216 0.0 3.0 0.00 0.00 0.00 51 985.9
20260504000339 69 235 0.0 3.0 0.00 0.00 0.00 51 985.8
20260504000246 69 242 0.0 3.0 0.00 0.00 0.00 51 985.8
20260504000138 69 206 1.0 3.0 0.00 0.00 0.00 51 985.8
20260504000039 69 0 1.0 3.0 0.00 0.00 0.00 51 985.8
20260503235938 69 0 1.0 3.0 0.00 0.00 0.00 51 985.8
20260503235838 69 0 1.0 3.0 0.00 0.00 0.00 51 985.8
20260503235740 69 214 1.0 3.0 0.00 0.00 0.00 51 985.8
20260503235639 69 0 1.0 3.0 0.00 0.00 0.00 51 985.8
20260503235545 69 0 1.0 3.0 0.00 0.00 0.00 51 985.8
20260503235538 69 249 1.0 3.0 0.00 0.00 0.00 51 985.8
20260503235439 69 220 1.0 3.0 0.00 0.00 0.00 51 985.8
20260503235340 69 227 1.0 3.0 0.00 0.00 0.00 51 985.8
20260503235238 69 234 1.0 3.0 0.00 0.00 0.00 51 985.8
20260503235138 69 214 1.0 3.0 0.00 0.00 0.00 51 985.8
20260503235045 69 0 1.0 3.0 0.00 0.00 0.00 50 985.8
20260503235035 69 220 1.0 3.0 0.00 0.00 0.00 50 985.8
20260503234934 69 0 1.0 3.0 0.00 0.00 0.00 50 985.8
20260503234834 69 0 1.0 3.0 0.00 0.00 0.00 51 985.8
20260503234744 69 229 1.0 3.0 0.00 0.00 0.00 51 985.8
20260503234631 69 269 1.0 3.0 0.00 0.00 0.00 51 985.8
20260503234545 69 229 1.0 3.0 0.00 0.00 0.00 51 985.8
20260503234531 69 0 1.0 3.0 0.00 0.00 0.00 51 985.8
20260503234430 70 284 1.0 5.0 0.00 0.00 0.00 51 985.8
20260503234330 70 0 1.0 5.0 0.00 0.00 0.00 51 985.9
20260503234305 70 0 1.0 5.0 0.00 0.00 0.00 51 985.9
20260503234230 70 0 1.0 5.0 0.00 0.00 0.00 51 985.9
20260503234205 70 317 1.0 5.0 0.00 0.00 0.00 52 985.9
20260503234031 70 283 1.0 5.0 0.00 0.00 0.00 51 985.9
20260503233930 70 0 1.0 5.0 0.00 0.00 0.00 51 985.9
20260503233828 70 235 1.0 5.0 0.00 0.00 0.00 51 985.9
20260503233728 70 0 1.0 5.0 0.00 0.00 0.00 51 985.9
20260503233625 70 236 1.0 5.0 0.00 0.00 0.00 51 985.9
20260503233543 70 216 1.0 5.0 0.00 0.00 0.00 51 985.9
20260503233526 70 190 1.0 5.0 0.00 0.00 0.00 51 985.9
20260503233425 70 229 1.0 5.0 0.00 0.00 0.00 51 985.8
20260503233324 70 0 1.0 3.0 0.00 0.00 0.00 51 985.9
20260503233225 69 219 1.0 3.0 0.00 0.00 0.00 51 985.9
20260503233120 69 225 1.0 3.0 0.00 0.00 0.00 51 985.9
20260503233043 69 239 1.0 3.0 0.00 0.00 0.00 52 985.9
20260503233022 69 242 1.0 3.0 0.00 0.00 0.00 52 985.9
20260503232920 69 214 1.0 3.0 0.00 0.00 0.00 52 985.9
20260503232823 69 0 1.0 3.0 0.00 0.00 0.00 52 985.9
20260503232720 69 0 1.0 3.0 0.00 0.00 0.00 52 985.9
20260503232621 69 326 1.0 3.0 0.00 0.00 0.00 52 985.9
20260503232542 69 0 1.0 3.0 0.00 0.00 0.00 52 985.9
20260503232522 69 214 1.0 3.0 0.00 0.00 0.00 52 985.9
20260503232420 69 0 1.0 3.0 0.00 0.00 0.00 52 985.9
20260503232318 69 272 1.0 3.0 0.00 0.00 0.00 52 985.9
20260503232218 69 0 1.0 3.0 0.00 0.00 0.00 52 986.0
20260503232116 69 203 1.0 3.0 0.00 0.00 0.00 51 986.0
20260503232040 69 271 1.0 3.0 0.00 0.00 0.00 51 986.0
20260503232016 69 220 1.0 3.0 0.00 0.00 0.00 51 986.0
20260503231916 69 210 1.0 3.0 0.00 0.00 0.00 51 986.0
20260503231816 69 195 1.0 3.0 0.00 0.00 0.00 52 986.0
20260503231715 69 229 0.0 3.0 0.00 0.00 0.00 52 986.0
20260503231615 69 0 0.0 3.0 0.00 0.00 0.00 52 986.0
20260503231544 69 0 0.0 3.0 0.00 0.00 0.00 52 986.0
20260503231515 69 137 0.0 3.0 0.00 0.00 0.00 52 986.0
20260503231416 69 214 0.0 3.0 0.00 0.00 0.00 52 986.0
20260503231315 69 0 1.0 3.0 0.00 0.00 0.00 53 986.0
20260503231215 69 0 1.0 4.0 0.00 0.00 0.00 52 986.0
20260503231116 69 0 1.0 4.0 0.00 0.00 0.00 52 986.0
20260503231040 69 0 1.0 4.0 0.00 0.00 0.00 52 986.0
20260503231016 69 231 1.0 4.0 0.00 0.00 0.00 52 986.0
20260503230916 69 239 1.0 4.0 0.00 0.00 0.00 52 986.0
20260503230816 69 0 1.0 4.0 0.00 0.00 0.00 52 986.0
20260503230716 70 0 1.0 4.0 0.00 0.00 0.00 51 986.0
20260503230615 70 64 1.0 4.0 0.00 0.00 0.00 51 986.0
20260503230540 70 217 1.0 4.0 0.00 0.00 0.00 51 986.0
20260503230516 70 225 1.0 4.0 0.00 0.00 0.00 51 986.0
20260503230416 70 234 1.0 4.0 0.00 0.00 0.00 51 986.0
20260503230316 70 230 1.0 4.0 0.00 0.00 0.00 51 986.1
20260503230216 70 187 0.0 2.0 0.00 0.00 0.00 51 986.1
20260503230116 70 0 1.0 2.0 0.00 0.00 0.00 51 986.1
20260503230040 70 0 1.0 2.0 0.00 0.00 0.00 50 986.1
20260503230016 70 235 1.0 2.0 0.00 0.00 0.00 50 986.1
20260503225916 70 236 1.0 3.0 0.00 0.00 0.00 51 986.1
20260503225816 70 0 1.0 3.0 0.00 0.00 0.00 51 986.1
20260503225716 70 238 1.0 3.0 0.00 0.00 0.00 50 986.1
20260503225616 70 211 1.0 3.0 0.00 0.00 0.00 51 986.1
20260503225541 70 171 1.0 3.0 0.00 0.00 0.00 50 986.1
20260503225516 70 0 1.0 3.0 0.00 0.00 0.00 50 986.1
20260503225417 70 222 1.0 3.0 0.00 0.00 0.00 50 986.1
20260503225323 70 0 1.0 3.0 0.00 0.00 0.00 50 986.1
20260503225315 70 345 1.0 3.0 0.00 0.00 0.00 50 986.1
20260503225215 70 0 1.0 3.0 0.00 0.00 0.00 50 986.1
20260503225158 70 0 1.0 3.0 0.00 0.00 0.00 50 986.1
20260503225014 70 222 1.0 3.0 0.00 0.00 0.00 50 986.1
20260503224912 70 236 1.0 3.0 0.00 0.00 0.00 50 986.1
20260503224811 70 275 1.0 3.0 0.00 0.00 0.00 50 986.1
20260503224709 70 200 1.0 3.0 0.00 0.00 0.00 49 986.1
20260503224608 70 227 1.0 3.0 0.00 0.00 0.00 50 986.1
20260503224541 70 210 1.0 3.0 0.00 0.00 0.00 50 986.1
20260503224508 70 293 1.0 3.0 0.00 0.00 0.00 50 986.1
20260503224409 70 224 1.0 3.0 0.00 0.00 0.00 50 986.1
20260503224309 69 216 1.0 3.0 0.00 0.00 0.00 50 986.1
20260503224210 69 310 1.0 3.0 0.00 0.00 0.00 50 986.1
20260503224109 69 0 1.0 3.0 0.00 0.00 0.00 50 986.1
20260503224040 69 322 1.0 3.0 0.00 0.00 0.00 50 986.1
20260503224007 69 262 1.0 3.0 0.00 0.00 0.00 50 986.2
20260503223908 69 208 1.0 3.0 0.00 0.00 0.00 50 986.2
20260503223808 69 209 1.0 3.0 0.00 0.00 0.00 50 986.2
20260503223708 69 0 1.0 3.0 0.00 0.00 0.00 50 986.1
20260503223608 69 225 1.0 3.0 0.00 0.00 0.00 50 986.1
20260503223537 69 232 1.0 3.0 0.00 0.00 0.00 50 986.1
20260503223512 69 0 1.0 3.0 0.00 0.00 0.00 50 986.2
20260503223407 69 241 1.0 3.0 0.00 0.00 0.00 50 986.2
20260503223308 69 343 1.0 3.0 0.00 0.00 0.00 50 986.2
20260503223208 69 0 1.0 3.0 0.00 0.00 0.00 50 986.2
20260503223108 69 231 1.0 3.0 0.00 0.00 0.00 50 986.2
20260503223038 69 208 1.0 3.0 0.00 0.00 0.00 50 986.2
20260503223008 69 257 1.0 3.0 0.00 0.00 0.00 50 986.2
20260503222908 69 0 1.0 5.0 0.00 0.00 0.00 50 986.2
20260503222807 69 216 1.0 5.0 0.00 0.00 0.00 50 986.3
20260503222709 69 200 1.0 5.0 0.00 0.00 0.00 50 986.3
20260503222609 69 237 1.0 5.0 0.00 0.00 0.00 49 986.3
20260503222538 69 228 1.0 5.0 0.00 0.00 0.00 49 986.3
20260503222509 69 0 1.0 5.0 0.00 0.00 0.00 49 986.3
20260503222408 69 0 1.0 5.0 0.00 0.00 0.00 49 986.3
20260503222308 69 208 1.0 5.0 0.00 0.00 0.00 49 986.3
20260503222207 69 0 1.0 5.0 0.00 0.00 0.00 49 986.3
20260503222105 69 196 1.0 5.0 0.00 0.00 0.00 50 986.4
20260503222037 69 1 1.0 5.0 0.00 0.00 0.00 50 986.4
20260503222005 69 225 1.0 5.0 0.00 0.00 0.00 50 986.3
20260503221905 69 235 1.0 5.0 0.00 0.00 0.00 49 986.3
20260503221807 69 156 1.0 5.0 0.00 0.00 0.00 49 986.4
20260503221754 69 250 1.0 5.0 0.00 0.00 0.00 49 986.4
20260503221709 69 226 1.0 5.0 0.00 0.00 0.00 49 986.4
20260503221654 69 246 1.0 5.0 0.00 0.00 0.00 49 986.4
20260503221505 69 235 1.0 4.0 0.00 0.00 0.00 49 986.4
20260503221405 69 221 1.0 4.0 0.00 0.00 0.00 49 986.4
20260503221305 69 245 1.0 4.0 0.00 0.00 0.00 50 986.4
20260503221205 69 215 1.0 4.0 0.00 0.00 0.00 49 986.4
20260503221035 69 0 1.0 4.0 0.00 0.00 0.00 50 986.4
20260503221005 69 265 1.0 4.0 0.00 0.00 0.00 49 986.4
20260503220905 69 298 2.0 4.0 0.00 0.00 0.00 49 986.4
20260503220804 69 205 2.0 4.0 0.00 0.00 0.00 49 986.4
20260503220705 69 233 2.0 4.0 0.00 0.00 0.00 49 986.4
20260503220604 69 251 2.0 5.0 0.00 0.00 0.00 49 986.5
20260503220535 69 233 2.0 5.0 0.00 0.00 0.00 49 986.5
20260503220504 69 240 2.0 5.0 0.00 0.00 0.00 49 986.5
20260503220405 69 257 2.0 5.0 0.00 0.00 0.00 49 986.5
20260503220304 69 235 2.0 5.0 0.00 0.00 0.00 49 986.5
20260503220204 69 150 2.0 5.0 0.00 0.00 0.00 48 986.5
20260503220108 69 254 2.0 5.0 0.00 0.00 0.00 49 986.4
20260503220036 69 270 2.0 5.0 0.00 0.00 0.00 49 986.4
20260503220005 69 219 2.0 5.0 0.00 0.00 0.00 48 986.4
20260503215905 69 233 2.0 5.0 0.00 0.00 0.00 48 986.4
20260503215805 69 231 2.0 5.0 0.00 0.00 0.00 48 986.4
20260503215705 69 0 2.0 5.0 0.00 0.00 0.00 48 986.4
20260503215605 69 228 2.0 5.0 0.00 0.00 0.00 47 986.5
20260503215535 69 202 2.0 5.0 0.00 0.00 0.00 47 986.5
20260503215505 69 226 2.0 5.0 0.00 0.00 0.00 47 986.5
20260503215405 69 243 2.0 6.0 0.00 0.00 0.00 48 986.5
20260503215310 69 265 2.0 6.0 0.00 0.00 0.00 48 986.5
20260503215305 69 276 2.0 6.0 0.00 0.00 0.00 47 986.5
20260503215221 69 217 2.0 6.0 0.00 0.00 0.00 47 986.4
20260503215152 69 212 2.0 6.0 0.00 0.00 0.00 48 986.5
20260503215006 69 220 2.0 6.0 0.00 0.00 0.00 48 986.5
20260503214904 69 221 2.0 6.0 0.00 0.00 0.00 48 986.5
20260503214800 69 233 2.0 6.0 0.00 0.00 0.00 48 986.5
20260503214701 69 241 2.0 6.0 0.00 0.00 0.00 48 986.5
20260503214557 69 233 2.0 6.0 0.00 0.00 0.00 48 986.5
20260503214532 69 229 2.0 6.0 0.00 0.00 0.00 48 986.5
20260503214455 69 315 2.0 6.0 0.00 0.00 0.00 47 986.4
20260503214355 69 332 2.0 6.0 0.00 0.00 0.00 47 986.5
20260503214254 69 175 2.0 5.0 0.00 0.00 0.00 47 986.5
20260503214155 69 275 2.0 5.0 0.00 0.00 0.00 47 986.4
20260503214051 69 229 2.0 5.0 0.00 0.00 0.00 47 986.5
20260503214032 69 204 2.0 5.0 0.00 0.00 0.00 47 986.5
20260503213952 69 259 2.0 5.0 0.00 0.00 0.00 47 986.4
20260503213852 69 204 2.0 5.0 0.00 0.00 0.00 47 986.4
20260503213749 69 216 2.0 5.0 0.00 0.00 0.00 47 986.4
20260503213649 70 200 2.0 5.0 0.00 0.00 0.00 47 986.4
20260503213550 70 232 2.0 5.0 0.00 0.00 0.00 47 986.4
20260503213530 70 201 2.0 5.0 0.00 0.00 0.00 47 986.4
20260503213449 70 65 2.0 6.0 0.00 0.00 0.00 46 986.4
20260503213347 70 202 2.0 6.0 0.00 0.00 0.00 46 986.4
20260503213246 70 208 2.0 6.0 0.00 0.00 0.00 46 986.5
20260503213144 70 234 2.0 6.0 0.00 0.00 0.00 46 986.5
20260503213043 70 207 2.0 6.0 0.00 0.00 0.00 46 986.5
20260503213030 70 214 2.0 6.0 0.00 0.00 0.00 46 986.5
20260503212940 70 197 3.0 6.0 0.00 0.00 0.00 47 986.5
20260503212839 70 5 3.0 6.0 0.00 0.00 0.00 46 986.5
20260503212737 70 112 3.0 6.0 0.00 0.00 0.00 47 986.5
20260503212637 70 216 3.0 6.0 0.00 0.00 0.00 46 986.5
20260503212544 70 233 3.0 6.0 0.00 0.00 0.00 46 986.5
20260503212533 70 221 3.0 6.0 0.00 0.00 0.00 46 986.5
20260503212437 70 19 3.0 6.0 0.00 0.00 0.00 46 986.5
20260503212337 70 251 3.0 6.0 0.00 0.00 0.00 47 986.6
20260503212238 70 248 2.0 6.0 0.00 0.00 0.00 46 986.5
20260503212138 70 215 2.0 6.0 0.00 0.00 0.00 46 986.5
20260503212043 70 247 2.0 6.0 0.00 0.00 0.00 46 986.6
20260503212032 70 218 2.0 6.0 0.00 0.00 0.00 46 986.6
20260503211937 70 175 2.0 6.0 0.00 0.00 0.00 46 986.6
20260503211837 69 265 2.0 6.0 0.00 0.00 0.00 47 986.6
20260503211738 69 306 2.0 6.0 0.00 0.00 0.00 47 986.6
20260503211638 69 235 2.0 6.0 0.00 0.00 0.00 47 986.5
20260503211544 69 232 2.0 6.0 0.00 0.00 0.00 47 986.6
20260503211533 69 227 2.0 6.0 0.00 0.00 0.00 47 986.6
20260503211437 69 246 2.0 6.0 0.00 0.00 0.00 46 986.6
20260503211337 69 185 2.0 6.0 0.00 0.00 0.00 46 986.5
20260503211238 69 62 2.0 6.0 0.00 0.00 0.00 47 986.6
20260503211138 69 264 2.0 6.0 0.00 0.00 0.00 46 986.5
20260503211034 69 235 2.0 6.0 0.00 0.00 0.00 46 986.6
20260503210937 69 225 2.0 6.0 0.00 0.00 0.00 46 986.6
20260503210837 69 221 2.0 6.0 0.00 0.00 0.00 46 986.6
20260503210737 69 240 2.0 6.0 0.00 0.00 0.00 46 986.6
20260503210638 69 243 2.0 6.0 0.00 0.00 0.00 47 986.6
20260503210544 69 224 2.0 6.0 0.00 0.00 0.00 47 986.6
20260503210533 69 346 2.0 6.0 0.00 0.00 0.00 47 986.6
20260503210438 69 254 2.0 6.0 0.00 0.00 0.00 47 986.6
20260503210337 69 161 2.0 6.0 0.00 0.00 0.00 47 986.5
20260503210237 69 227 2.0 5.0 0.00 0.00 0.00 47 986.6
20260503210138 69 325 2.0 5.0 0.00 0.00 0.00 46 986.6
20260503210044 69 259 2.0 5.0 0.00 0.00 0.00 46 986.5
20260503210034 69 277 2.0 5.0 0.00 0.00 0.00 46 986.5
20260503205937 69 311 2.0 6.0 0.00 0.00 0.00 47 986.5
20260503205838 69 226 2.0 6.0 0.00 0.00 0.00 47 986.5
20260503205738 69 214 2.0 6.0 0.00 0.00 0.00 47 986.5
20260503205638 69 237 2.0 6.0 0.00 0.00 0.00 47 986.5
20260503205544 69 261 2.0 6.0 0.00 0.00 0.00 46 986.6
20260503205533 69 247 2.0 6.0 0.00 0.00 0.00 46 986.6
20260503205437 69 303 2.0 6.0 0.00 0.00 0.00 46 986.6
20260503205338 69 256 2.0 6.0 0.00 0.00 0.00 46 986.5
20260503205238 70 212 2.0 6.0 0.00 0.00 0.00 46 986.6
20260503205137 70 235 2.0 6.0 0.00 0.00 0.00 46 986.6
20260503205033 70 236 2.0 6.0 0.00 0.00 0.00 46 986.6
20260503204937 70 215 2.0 6.0 0.00 0.00 0.00 46 986.7
20260503204837 70 339 2.0 6.0 0.00 0.00 0.00 45 986.6
20260503204738 70 335 2.0 6.0 0.00 0.00 0.00 46 986.6
20260503204634 70 220 2.0 6.0 0.00 0.00 0.00 46 986.7
20260503204537 70 240 2.0 7.0 0.00 0.00 0.00 45 986.6
20260503204531 70 207 2.0 7.0 0.00 0.00 0.00 45 986.6
20260503204429 70 215 3.0 7.0 0.00 0.00 0.00 45 986.7
20260503204329 70 289 2.0 7.0 0.00 0.00 0.00 45 986.7
20260503204227 70 224 3.0 7.0 0.00 0.00 0.00 45 986.7
20260503204127 70 201 3.0 7.0 0.00 0.00 0.00 45 986.7
20260503204038 70 281 3.0 7.0 0.00 0.00 0.00 45 986.8
20260503204032 70 245 2.0 7.0 0.00 0.00 0.00 45 986.8
20260503203926 70 164 2.0 7.0 0.00 0.00 0.00 45 986.8
20260503203824 70 234 2.0 7.0 0.00 0.00 0.00 45 986.8
20260503203724 70 208 2.0 7.0 0.00 0.00 0.00 45 986.8
20260503203624 70 179 2.0 7.0 0.00 0.00 0.00 46 986.8
20260503203531 70 245 2.0 7.0 0.00 0.00 0.00 44 986.8
20260503203523 70 225 2.0 7.0 0.00 0.00 0.00 44 986.8
20260503203424 70 228 2.0 7.0 0.00 0.00 0.00 45 986.8
20260503203321 70 212 2.0 7.0 0.00 0.00 0.00 45 986.8
20260503203221 69 225 2.0 7.0 0.00 0.00 0.00 44 986.9
20260503203120 69 115 2.0 7.0 0.00 0.00 0.00 44 986.9
20260503203029 69 259 2.0 7.0 0.00 0.00 0.00 45 986.9
20260503203021 69 346 2.0 7.0 0.00 0.00 0.00 45 986.9
20260503202922 69 217 2.0 7.0 0.00 0.00 0.00 46 986.9
20260503202821 69 0 2.0 7.0 0.00 0.00 0.00 46 986.9
20260503202718 68 256 2.0 5.0 0.00 0.00 0.00 46 986.9
20260503202617 68 198 2.0 5.0 0.00 0.00 0.00 45 986.9
20260503202527 68 202 3.0 5.0 0.00 0.00 0.00 45 986.9
20260503202517 68 196 2.0 5.0 0.00 0.00 0.00 45 986.9
20260503202417 68 238 2.0 6.0 0.00 0.00 0.00 45 986.9
20260503202318 68 224 3.0 8.0 0.00 0.00 0.00 46 986.7
20260503202215 68 233 3.0 8.0 0.00 0.00 0.00 46 986.7
20260503202114 68 230 3.0 8.0 0.00 0.00 0.00 46 986.7
20260503202027 68 198 3.0 8.0 0.00 0.00 0.00 46 986.7
20260503202011 68 237 3.0 8.0 0.00 0.00 0.00 46 986.7
20260503201912 68 246 3.0 8.0 0.00 0.00 0.00 46 986.7
20260503201811 68 237 3.0 8.0 0.00 0.00 0.00 46 986.8
20260503201711 68 217 3.0 8.0 0.00 0.00 0.00 46 986.8
20260503201611 68 275 2.0 8.0 0.00 0.00 0.00 46 987.0
20260503201525 68 227 2.0 8.0 0.00 0.00 0.00 45 987.1
20260503201511 68 267 2.0 8.0 0.00 0.00 0.00 45 987.1
20260503201411 68 191 2.0 8.0 0.00 0.00 0.00 46 987.2
20260503201324 68 218 2.0 6.0 0.00 0.00 0.00 45 987.3
20260503201211 68 7 2.0 6.0 0.00 0.00 0.00 45 987.4
20260503201111 68 223 2.0 6.0 0.00 0.00 0.00 45 987.3
20260503201025 68 233 2.0 6.0 0.00 0.00 0.00 45 987.3
20260503201011 68 267 2.0 6.0 0.00 0.00 0.00 45 987.3
20260503200924 68 194 2.0 5.0 0.00 0.00 0.00 45 987.4
20260503200812 68 219 2.0 5.0 0.00 0.00 0.00 45 987.4
20260503200712 68 29 2.0 8.0 0.00 0.00 0.00 45 987.4
20260503200610 68 0 2.0 8.0 0.00 0.00 0.00 46 987.4
20260503200526 68 235 2.0 8.0 0.00 0.00 0.00 45 987.4
20260503200511 68 233 2.0 8.0 0.00 0.00 0.00 45 987.4
20260503200412 68 203 2.0 8.0 0.00 0.00 0.00 45 987.3
20260503200311 68 239 2.0 8.0 0.00 0.00 0.00 45 987.3
20260503200211 69 330 2.0 8.0 0.00 0.00 0.00 45 987.4
20260503200112 69 211 3.0 8.0 0.00 0.00 0.00 44 987.3
20260503200025 69 310 3.0 8.0 0.00 0.00 0.00 44 987.3
20260503200011 69 219 3.0 8.0 0.00 0.00 0.00 44 987.3
20260503195912 69 270 3.0 9.0 0.00 0.00 0.00 44 987.2
20260503195812 69 217 3.0 9.0 0.00 0.00 0.00 44 987.2
20260503195712 69 218 3.0 9.0 0.00 0.00 0.00 45 987.2
20260503195611 69 315 3.0 9.0 0.00 0.00 0.00 45 987.1
20260503195525 69 297 3.0 9.0 0.00 0.00 0.00 44 987.1
20260503195512 69 306 3.0 9.0 0.00 0.00 0.00 44 987.1
20260503195413 69 286 3.0 9.0 0.00 0.00 0.00 44 987.0
20260503195312 70 221 3.0 9.0 0.00 0.00 0.00 44 987.1
20260503195247 70 231 3.0 9.0 0.00 0.00 0.00 43 987.0
20260503195212 70 260 3.0 9.0 0.00 0.00 0.00 44 987.1
20260503195156 70 180 3.0 9.0 0.00 0.00 0.00 43 987.0
20260503195012 70 265 3.0 9.0 0.00 0.00 0.00 43 987.0
20260503194912 70 236 3.0 8.0 0.00 0.00 0.00 43 987.1
20260503194810 71 222 3.0 8.0 0.00 0.00 0.00 42 987.1
20260503194745 71 235 3.0 8.0 0.00 0.00 0.00 42 987.2
20260503194710 71 262 3.0 8.0 0.00 0.00 0.00 43 987.0
20260503194641 71 164 3.0 8.0 0.00 0.00 0.00 42 987.2
20260503194510 71 261 3.0 8.0 0.00 0.00 0.00 42 987.2
20260503194410 71 160 3.0 8.0 0.00 0.00 0.00 43 987.2
20260503194309 71 312 3.0 8.0 0.00 0.00 0.00 43 987.2
20260503194209 71 270 3.0 8.0 0.00 0.00 0.00 42 987.3
20260503194112 71 230 4.0 9.0 0.00 0.00 0.00 43 987.4
20260503194022 71 171 4.0 9.0 0.00 0.00 0.00 43 987.4
20260503194009 71 91 4.0 9.0 0.00 0.00 0.00 42 987.6
20260503193909 71 198 4.0 9.0 0.00 0.00 0.00 43 987.6
20260503193809 71 287 3.0 9.0 0.00 0.00 0.00 43 987.6
20260503193710 71 327 3.0 9.0 0.00 0.00 0.00 42 987.6
20260503193610 71 162 3.0 9.0 0.00 0.00 0.00 42 987.6
20260503193521 71 240 3.0 9.0 0.00 0.00 0.00 42 987.6
20260503193510 71 278 3.0 9.0 0.00 0.00 0.00 42 987.7
20260503193408 71 214 3.0 9.0 0.00 0.00 0.00 42 987.6
20260503193309 71 233 3.0 9.0 0.00 0.00 0.00 42 987.6
20260503193209 71 220 3.0 9.0 0.00 0.00 0.00 42 987.7
20260503193109 71 217 3.0 8.0 0.00 0.00 0.00 42 987.6
20260503193020 71 200 3.0 8.0 0.00 0.00 0.00 42 987.6
20260503193009 71 230 3.0 8.0 0.00 0.00 0.00 43 987.6
20260503192909 71 257 3.0 8.0 0.00 0.00 0.00 42 987.5
20260503192809 71 221 3.0 8.0 0.00 0.00 0.00 42 987.4
20260503192709 71 191 3.0 8.0 0.00 0.00 0.00 42 987.4
20260503192609 71 214 3.0 8.0 0.00 0.00 0.00 41 987.4
20260503192521 71 228 3.0 8.0 0.00 0.00 0.00 41 987.4
20260503192510 71 216 3.0 8.0 0.00 0.00 0.00 42 987.3
20260503192410 72 307 3.0 8.0 0.00 0.00 0.00 42 987.3
20260503192310 72 202 3.0 8.0 0.00 0.00 0.00 41 987.3
20260503192210 72 209 3.0 8.0 0.00 0.00 0.00 41 987.3
20260503192125 72 159 3.0 8.0 0.00 0.00 0.00 42 987.4
20260503192021 72 204 3.0 8.0 0.00 0.00 0.00 42 987.4
20260503192009 72 258 3.0 8.0 0.00 0.00 0.00 41 987.5
20260503191909 72 221 3.0 8.0 0.00 0.00 0.00 40 987.5
20260503191807 72 243 3.0 8.0 0.00 0.00 0.00 41 987.5
20260503191742 72 256 3.0 7.0 0.00 0.00 0.00 42 987.6
20260503191707 72 241 3.0 7.0 0.00 0.00 0.00 42 987.8
20260503191639 72 254 3.0 7.0 0.00 0.00 0.00 42 987.6
20260503191507 71 230 3.0 7.0 0.00 0.00 0.00 42 987.5
20260503191407 71 216 3.0 7.0 0.00 0.00 0.00 41 987.7
20260503191307 71 216 3.0 7.0 0.00 0.00 0.00 41 987.7
20260503191207 71 266 3.0 7.0 0.00 0.00 0.00 41 987.7
20260503191107 71 211 3.0 7.0 0.00 0.00 0.00 42 987.7
20260503191021 71 239 3.0 7.0 0.00 0.00 0.00 42 987.7
20260503191008 71 202 3.0 7.0 0.00 0.00 0.00 42 987.7
20260503190908 71 310 3.0 7.0 0.00 0.00 0.00 42 987.7
20260503190808 71 216 3.0 7.0 0.00 0.00 0.00 42 987.6
20260503190747 70 255 3.0 7.0 0.00 0.00 0.00 42 987.4
20260503190707 70 219 3.0 7.0 0.00 0.00 0.00 42 987.6
20260503190639 70 218 3.0 7.0 0.00 0.00 0.00 42 987.4
20260503190508 70 177 3.0 7.0 0.00 0.00 0.00 42 987.4
20260503190407 70 174 3.0 8.0 0.00 0.00 0.00 42 987.5
20260503190307 70 248 3.0 8.0 0.00 0.00 0.00 42 987.5
20260503190207 70 272 3.0 8.0 0.00 0.00 0.00 42 987.6
20260503190115 70 227 3.0 9.0 0.00 0.00 0.00 42 987.4
20260503190020 70 205 3.0 9.0 0.00 0.00 0.00 42 987.4
20260503190007 70 184 3.0 9.0 0.00 0.00 0.00 42 987.5
20260503185907 70 275 3.0 9.0 0.00 0.00 0.00 42 987.4
20260503185807 70 205 3.0 9.0 0.00 0.00 0.00 43 987.5
20260503185708 70 222 3.0 9.0 0.00 0.00 0.00 43 987.5
20260503185607 70 279 3.0 9.0 0.00 0.00 0.00 42 987.6
20260503185520 70 71 3.0 9.0 0.00 0.00 0.00 42 987.6
20260503185507 70 132 3.0 9.0 0.00 0.00 0.00 42 987.6
20260503185407 70 238 3.0 9.0 0.00 0.00 0.00 42 987.6
20260503185307 70 206 3.0 9.0 0.00 0.00 0.00 42 987.6
20260503185208 69 307 3.0 9.0 0.00 0.00 0.00 42 987.6
20260503185108 69 223 3.0 9.0 0.00 0.00 0.00 42 987.5
20260503185021 69 220 2.0 7.0 0.00 0.00 0.00 42 987.5
20260503185008 69 2 2.0 7.0 0.00 0.00 0.00 42 987.6
20260503184907 69 223 2.0 7.0 0.00 0.00 0.00 42 987.6
20260503184807 69 0 2.0 7.0 0.00 0.00 0.00 43 987.7
20260503184707 69 184 3.0 7.0 0.00 0.00 0.00 42 987.7
20260503184607 69 249 3.0 7.0 0.00 0.00 0.00 42 987.7
20260503184519 69 0 3.0 7.0 0.00 0.00 0.00 42 987.7
20260503184504 69 225 3.0 7.0 0.00 0.00 0.00 42 987.7
20260503184401 69 208 2.0 7.0 0.00 0.00 0.00 42 987.7
20260503184301 69 236 2.0 7.0 0.00 0.00 0.00 43 987.6
20260503184159 69 290 2.0 7.0 0.00 0.00 0.00 44 987.6
20260503184057 68 348 2.0 7.0 0.00 0.00 0.00 43 987.7
20260503184021 68 349 2.0 7.0 0.00 0.00 0.00 43 987.7
20260503183958 68 271 2.0 7.0 0.00 0.00 0.00 44 987.7
20260503183855 68 243 2.0 7.0 0.00 0.00 0.00 43 987.7
20260503183755 68 8 2.0 9.0 0.00 0.00 0.00 44 987.7
20260503183652 67 263 2.0 9.0 0.00 0.00 0.00 45 987.9
20260503183552 67 268 2.0 9.0 0.00 0.00 0.00 46 988.0
20260503183520 67 336 2.0 9.0 0.00 0.00 0.00 46 988.0
20260503183452 67 263 2.0 9.0 0.00 0.00 0.00 46 988.0
20260503183351 67 29 3.0 9.0 0.00 0.00 0.00 44 988.1
20260503183251 67 320 3.0 9.0 0.00 0.00 0.00 44 988.1
20260503183151 67 0 3.0 9.0 0.00 0.00 0.00 44 988.1
20260503183049 67 229 3.0 9.0 0.00 0.00 0.00 44 988.2
20260503183020 67 247 3.0 9.0 0.00 0.00 0.00 44 988.2
20260503182949 67 206 3.0 9.0 0.00 0.00 0.00 43 988.1
20260503182848 67 207 3.0 9.0 0.00 0.00 0.00 43 988.1
20260503182749 67 220 3.0 9.0 0.00 0.00 0.00 43 988.0
20260503182648 67 262 3.0 9.0 0.00 0.00 0.00 44 988.1
20260503182548 67 221 3.0 9.0 0.00 0.00 0.00 44 988.0
20260503182518 67 234 3.0 9.0 0.00 0.00 0.00 44 988.0
20260503182447 66 187 3.0 9.0 0.00 0.00 0.00 44 988.0
20260503182347 66 266 3.0 9.0 0.00 0.00 0.00 44 987.9
20260503182247 66 243 3.0 9.0 0.00 0.00 0.00 44 987.8
20260503182147 66 152 3.0 9.0 0.00 0.00 0.00 44 988.0
20260503182047 67 216 3.0 9.0 0.00 0.00 0.00 44 988.0
20260503182030 67 220 3.0 9.0 0.00 0.00 0.00 44 988.0
20260503181947 67 271 3.0 6.0 0.00 0.00 0.00 44 987.9
20260503181847 67 295 3.0 6.0 0.00 0.00 0.00 44 988.0
20260503181743 67 213 2.0 6.0 0.00 0.00 0.00 44 988.1
20260503181643 67 256 3.0 6.0 0.00 0.00 0.00 44 988.1
20260503181542 67 316 3.0 7.0 0.00 0.00 0.00 44 988.2
20260503181518 67 211 3.0 7.0 0.00 0.00 0.00 44 988.2
20260503181443 67 257 3.0 7.0 0.00 0.00 0.00 44 988.2
20260503181343 67 259 3.0 9.0 0.00 0.00 0.00 44 988.3
20260503181243 67 257 3.0 9.0 0.00 0.00 0.00 44 988.2
20260503181143 67 230 2.0 9.0 0.00 0.00 0.00 44 988.5
20260503181043 67 191 2.0 9.0 0.00 0.00 0.00 44 988.6
20260503181018 67 243 2.0 9.0 0.00 0.00 0.00 44 988.6
20260503180943 67 258 2.0 9.0 0.00 0.00 0.00 45 988.5
20260503180843 66 210 2.0 9.0 0.00 0.00 0.00 45 988.5
20260503180755 66 279 3.0 9.0 0.00 0.00 0.00 46 988.5
20260503180643 66 177 3.0 9.0 0.00 0.00 0.00 47 988.6
20260503180543 66 252 3.0 9.0 0.00 0.00 0.00 46 988.7
20260503180517 66 352 3.0 9.0 0.00 0.00 0.00 46 988.7
20260503180456 66 43 3.0 9.0 0.00 0.00 0.00 45 988.6
20260503180343 67 179 3.0 9.0 0.00 0.00 0.00 46 988.6
20260503180243 67 226 3.0 8.0 0.00 0.00 0.00 46 988.7
20260503180143 67 226 3.0 8.0 0.00 0.00 0.00 46 988.5
20260503180043 66 312 3.0 8.0 0.00 0.00 0.00 45 988.5
20260503180018 66 179 3.0 8.0 0.00 0.00 0.00 45 988.5
20260503175943 66 216 3.0 8.0 0.00 0.00 0.00 45 988.5
20260503175843 66 239 2.0 8.0 0.00 0.00 0.00 46 988.5
20260503175743 66 302 2.0 6.0 0.00 0.00 0.00 46 988.5
20260503175644 66 188 2.0 6.0 0.00 0.00 0.00 47 988.5
20260503175543 66 190 2.0 6.0 0.00 0.00 0.00 48 988.5
20260503175518 66 31 2.0 6.0 0.00 0.00 0.00 48 988.5
20260503175443 66 348 2.0 6.0 0.00 0.00 0.00 47 988.6
20260503175344 66 220 2.0 6.0 0.00 0.00 0.00 47 988.6
20260503175243 66 238 2.0 6.0 0.00 0.00 0.00 47 988.5
20260503175143 66 226 2.0 6.0 0.00 0.00 0.00 46 988.6
20260503175044 66 297 2.0 6.0 0.00 0.00 0.00 46 988.6
20260503175019 66 323 2.0 6.0 0.00 0.00 0.00 46 988.6
20260503174956 66 223 2.0 6.0 0.00 0.00 0.00 46 988.7
20260503174843 66 219 2.0 6.0 0.00 0.00 0.00 46 988.7
20260503174743 66 265 2.0 6.0 0.00 0.00 0.00 46 988.8
20260503174641 66 284 2.0 6.0 0.00 0.00 0.00 47 988.6
20260503174540 66 266 2.0 6.0 0.00 0.00 0.00 48 988.8
20260503174518 66 330 2.0 6.0 0.00 0.00 0.00 48 988.8
20260503174440 66 195 2.0 6.0 0.00 0.00 0.00 47 988.8
20260503174338 66 305 2.0 6.0 0.00 0.00 0.00 46 988.9
20260503174237 66 226 2.0 6.0 0.00 0.00 0.00 47 988.9
20260503174137 66 26 2.0 6.0 0.00 0.00 0.00 47 988.9
20260503174037 65 322 2.0 6.0 0.00 0.00 0.00 47 989.0
20260503174016 65 225 2.0 6.0 0.00 0.00 0.00 47 989.0
20260503173935 65 246 2.0 7.0 0.00 0.00 0.00 48 989.0
20260503173832 65 259 2.0 7.0 0.00 0.00 0.00 49 989.0
20260503173729 65 218 2.0 7.0 0.00 0.00 0.00 49 989.0
20260503173629 65 271 2.0 7.0 0.00 0.00 0.00 50 989.0
20260503173530 64 77 2.0 7.0 0.00 0.00 0.00 49 989.1
20260503173513 64 339 2.0 7.0 0.00 0.00 0.00 49 989.1
20260503173427 64 256 2.0 7.0 0.00 0.00 0.00 48 989.1
20260503173327 64 227 2.0 7.0 0.00 0.00 0.00 49 989.1
20260503173221 64 245 2.0 7.0 0.00 0.00 0.00 48 989.2
20260503173124 64 235 2.0 7.0 0.00 0.00 0.00 48 989.2
20260503173021 63 227 3.0 7.0 0.00 0.00 0.00 49 989.2
20260503172921 63 228 2.0 6.0 0.00 0.00 0.00 50 989.3
20260503172834 63 243 2.0 6.0 0.00 0.00 0.00 51 989.4
20260503172750 63 231 2.0 6.0 0.00 0.00 0.00 50 989.4
20260503172721 63 240 2.0 6.0 0.00 0.00 0.00 51 989.4
20260503172644 63 20 2.0 6.0 0.00 0.00 0.00 51 989.5
20260503172625 63 231 2.0 6.0 0.00 0.00 0.00 50 989.4
20260503172414 63 354 2.0 5.0 0.00 0.00 0.00 49 989.5
20260503172313 63 221 2.0 5.0 0.00 0.00 0.00 50 989.6
20260503172214 63 227 2.0 5.0 0.00 0.00 0.00 50 989.7
20260503172114 62 264 2.0 5.0 0.00 0.00 0.00 49 989.7
20260503172030 62 303 2.0 4.0 0.00 0.00 0.00 50 989.9
20260503172014 62 235 2.0 5.0 0.00 0.00 0.00 49 989.8
20260503171914 62 204 2.0 5.0 0.00 0.00 0.00 49 989.8
20260503171858 62 275 2.0 4.0 0.00 0.00 0.00 50 990.0
20260503171714 62 211 2.0 4.0 0.00 0.00 0.00 50 990.0
20260503171638 62 174 2.0 4.0 0.00 0.00 0.00 50 990.0
20260503171619 62 303 2.0 4.0 0.00 0.00 0.00 50 989.9
20260503171414 62 242 2.0 4.0 0.00 0.00 0.00 51 990.0
20260503171327 62 7 2.0 4.0 0.00 0.00 0.00 50 990.0
20260503171214 62 79 2.0 4.0 0.00 0.00 0.00 50 990.0
20260503171114 62 313 2.0 4.0 0.00 0.00 0.00 50 990.1
20260503171013 62 10 2.0 4.0 0.00 0.00 0.00 50 990.1
20260503170927 62 233 1.0 4.0 0.00 0.00 0.00 50 990.1
20260503170814 62 192 1.0 4.0 0.00 0.00 0.00 50 990.1
20260503170732 62 333 1.0 3.0 0.00 0.00 0.00 51 990.1
20260503170715 62 162 1.0 4.0 0.00 0.00 0.00 51 990.1
20260503170638 62 269 1.0 3.0 0.00 0.00 0.00 52 990.1
20260503170619 62 333 1.0 3.0 0.00 0.00 0.00 51 990.1
20260503170414 62 281 1.0 3.0 0.00 0.00 0.00 51 990.1
20260503170314 62 281 1.0 3.0 0.00 0.00 0.00 52 990.1
20260503170213 62 349 1.0 3.0 0.00 0.00 0.00 52 990.1
20260503170127 62 278 1.0 3.0 0.00 0.00 0.00 53 990.2
20260503160217 58 325 2.0 3.0 0.00 0.00 0.00 56 991.3
20260503160116 58 356 1.0 3.0 0.00 0.00 0.00 56 991.4
20260503150917 58 0 1.0 4.0 0.00 0.00 0.00 57 992.5
20260503150817 58 0 1.0 5.0 0.00 0.00 0.00 57 992.5
20260503150717 58 0 2.0 5.0 0.00 0.00 0.00 57 992.6
20260503150618 58 238 2.0 5.0 0.00 0.00 0.00 56 992.6
20260503150517 58 23 2.0 5.0 0.00 0.00 0.00 56 992.6
20260503150424 58 0 2.0 5.0 0.00 0.00 0.00 56 992.6
20260503150417 58 230 2.0 5.0 0.00 0.00 0.00 56 992.6
20260503150317 58 230 2.0 5.0 0.00 0.00 0.00 56 992.6
20260503150217 58 224 2.0 5.0 0.00 0.00 0.00 56 992.5
20260503150118 57 261 2.0 5.0 0.00 0.00 0.00 57 992.5
20260503140217 52 222 0.0 2.0 0.00 0.00 0.00 67 993.3
20260503140117 52 173 1.0 2.0 0.00 0.00 0.00 67 993.3
20260503131418 49 235 1.0 3.0 0.00 0.00 0.00 71 994.0
20260503131318 49 235 2.0 3.0 0.00 0.00 0.00 71 994.0
20260503131218 49 236 2.0 3.0 0.00 0.00 0.00 71 994.0
20260503131118 49 240 1.0 3.0 0.00 0.00 0.00 71 994.0
20260503131019 49 235 1.0 3.0 0.00 0.00 0.00 71 994.0
20260503130918 49 287 1.0 3.0 0.00 0.00 0.00 71 994.0
20260503130841 49 287 1.0 3.0 0.00 0.00 0.00 71 994.0
20260503130821 49 227 1.0 3.0 0.00 0.00 0.00 71 994.0
20260503130718 49 218 1.0 3.0 0.00 0.00 0.00 71 994.0
20260503130618 49 215 1.0 3.0 0.00 0.00 0.00 71 994.0
20260503130521 49 228 1.0 3.0 0.00 0.00 0.00 71 994.1
20260503130419 49 262 1.0 3.0 0.00 0.00 0.00 71 994.0
20260503130341 49 222 1.0 3.0 0.00 0.00 0.00 71 994.0
20260503130318 49 242 1.0 3.0 0.00 0.00 0.00 71 994.0
20260503130220 49 217 1.0 3.0 0.00 0.00 0.00 72 994.0
20260503130120 49 6 1.0 3.0 0.00 0.00 0.00 71 994.0
20260503120219 47 188 1.0 4.0 0.00 0.00 0.00 74 994.0
20260503120121 47 329 1.0 4.0 0.00 0.00 0.00 74 994.0
20260503110813 45 0 0.0 2.0 0.00 0.00 0.00 77 993.8
20260503110757 45 0 0.0 2.0 0.00 0.00 0.00 77 993.8
20260503110713 45 277 0.0 2.0 0.00 0.00 0.00 77 993.8
20260503110613 45 216 0.0 2.0 0.00 0.00 0.00 77 993.8
20260503110513 45 49 0.0 2.0 0.00 0.00 0.00 77 993.8
20260503110413 45 0 0.0 2.0 0.00 0.00 0.00 77 993.9
20260503110312 45 223 0.0 2.0 0.00 0.00 0.00 77 993.9
20260503110258 45 223 0.0 2.0 0.00 0.00 0.00 77 993.9
20260503110212 45 0 0.0 1.0 0.00 0.00 0.00 77 993.9
20260503110113 45 0 0.0 2.0 0.00 0.00 0.00 77 993.9
20260503100235 46 0 1.0 2.0 0.00 0.00 0.00 73 994.0
20260503100121 46 257 1.0 2.0 0.00 0.00 0.00 73 994.0